Wetbulb
57.39 57.56 57.38 57.33 56.90 56.86 57.90 57.94 58.97 59.41 60.35 60.14 59.81 58.99 58.39 59.37 59.91 56.56 50.08 54.23 56.50 65.56 65.75 61.58 59.14 56.09 50.35 47.57 49.72 48.05 37.96 34.63 36.49 38.17 41.11 44.91 45.59 49.29 51.08 46.59 45.15 45.81 44.15 45.45 48.83
56.48 56.75 56.65 56.36 56.26 56.36 56.92 57.87 58.17 59.00 59.29 60.23 59.90 58.56 57.83 58.16 55.92 51.25 56.22 60.16 65.22 65.43 59.54 55.95 52.82 49.52 44.86 45.69 46.80 42.45 36.51 38.80 42.83 43.51 41.36 43.08 44.65 45.45 44.36 43.37 42.51 40.88 41.97 43.33 42.43
55.89 55.76 55.87 55.92 56.02 55.69 55.93 57.31 57.92 58.26 58.85 59.38 59.84 59.00 57.66 58.89 50.55 50.05 61.39 61.64 65.62 64.44 59.64 56.47 50.97 48.81 44.26 45.45 44.18 42.85 37.64 43.11 44.91 45.91 46.07 42.97 40.27 44.78 41.95 36.75 37.04 35.35 35.92 37.31 37.29
55.32 55.62 55.55 55.57 55.58 55.65 55.36 56.46 57.30 57.90 58.22 58.99 58.92 58.27 59.14 55.81 38.46 51.64 64.54 64.21 65.23 58.06 57.42 52.13 48.33 44.45 42.49 41.68 45.19 39.88 43.70 44.70 45.94 46.49 45.72 42.32 42.32 37.24 38.22 36.02 37.29 36.20 35.70 34.87 33.72
54.90 54.81 54.99 55.04 55.06 55.06 55.28 55.56 57.19 57.34 57.79 58.15 58.20 58.62 55.74 48.54 47.16 58.35 65.27 63.61 60.01 55.35 54.32 49.86 45.12 44.00 40.90 42.63 43.31 40.96 42.90 45.60 45.56 43.92 42.48 42.28 38.72 36.75 35.58 37.14 36.85 35.33 33.86 32.35 32.20
54.22 54.36 54.35 54.45 54.54 54.61 54.83 55.16 56.82 57.00 57.28 57.57 57.85 59.71 52.19 41.22 50.30 59.95 58.88 57.94 56.44 52.93 50.69 49.50 46.41 46.78 43.43 42.72 41.62 43.61 43.81 43.92 44.85 43.42 43.24 39.53 38.67 39.47 37.06 37.86 35.11 33.33 31.92 32.03 31.68
53.82 53.75 53.80 53.91 54.17 54.24 54.54 55.68 57.24 56.79 57.09 57.19 57.86 56.27 49.18 45.77 54.37 57.37 57.37 54.94 55.89 54.01 48.90 50.22 49.17 45.93 44.74 41.46 44.82 43.69 40.40 41.17 42.37 43.25 40.29 41.16 34.86 33.39 37.01 36.59 33.27 31.88 31.67 31.66 31.41
53.12 53.23 53.30 53.36 53.56 53.78 54.48 56.79 56.54 56.72 56.45 57.01 59.08 53.40 44.29 52.18 51.61 55.91 55.12 53.75 55.48 54.06 51.05 50.63 50.59 46.85 44.10 45.02 43.33 40.06 38.61 34.23 40.71 43.02 42.81 39.08 28.59 33.43 35.53 33.36 31.02 30.48 29.78 29.99 30.53
52.42 52.56 52.75 52.87 52.98 53.31 54.70 57.21 56.41 56.17 55.93 57.94 53.79 49.14 42.79 54.44 52.21 55.67 52.72 49.75 51.41 50.38 50.02 52.09 48.69 43.45 43.33 38.28 34.86 35.56 30.29 32.64 37.70 43.59 41.27 37.55 29.42 32.86 34.33 31.74 28.95 28.52 27.93 28.06 28.39
52.00 52.11 51.88 52.28 52.46 53.06 54.47 56.61 56.68 56.15 56.10 56.75 54.38 43.92 45.12 43.98 50.28 53.38 52.18 51.25 47.66 47.28 46.22 45.17 42.52 37.42 36.79 34.51 28.37 31.33 30.85 32.99 34.62 37.97 36.82 31.42 28.52 30.46 31.10 29.45 27.40 27.07 26.69 26.20 26.20
51.29 51.36 51.32 51.73 51.98 52.76 53.94 54.92 50.62 48.12 49.61 43.24 43.21 43.10 45.62 49.79 52.77 50.12 51.26 48.93 46.83 43.15 36.67 40.44 35.85 32.59 35.06 37.07 37.55 36.13 34.48 34.13 36.72 37.70 32.52 29.62 27.87 27.90 28.83 27.20 25.15 24.66 24.48 24.61 25.07
50.89 50.57 50.84 51.33 51.60 52.44 51.57 49.69 47.96 48.53 42.47 48.18 48.05 45.87 48.38 49.68 44.97 47.72 50.46 43.30 41.52 36.37 38.89 36.43 32.47 38.22 40.87 40.11 38.50 36.86 33.48 33.70 36.75 36.20 31.58 27.77 24.51 26.06 26.64 25.65 25.19 24.00 23.25 23.58 24.28
50.20 50.24 50.34 51.05 51.28 50.36 48.75 51.20 53.50 51.84 40.97 44.84 47.36 45.92 45.87 47.11 43.69 44.17 46.90 43.35 39.63 36.81 36.66 33.39 37.32 41.48 40.54 38.47 37.01 35.44 33.76 34.01 34.82 32.25 31.08 26.62 22.03 22.55 24.97 25.38 25.29 24.80 24.42 23.73 22.67
49.84 50.32 50.44 50.23 47.04 48.28 45.15 51.42 52.94 51.72 34.88 38.40 42.20 45.77 46.58 46.39 41.26 48.24 47.71 43.86 40.31 36.99 37.40 36.18 40.98 39.46 37.67 37.22 37.42 32.77 38.83 38.78 34.77 32.14 26.07 30.28 19.50 20.75 21.95 20.52 20.86 20.87 21.22 21.07 21.54
50.00 50.22 49.81 51.19 47.66 46.59 51.01 53.18 52.28 48.22 23.08 40.17 42.14 49.93 46.08 42.62 42.39 42.54 46.65 43.53 38.01 38.05 37.57 35.32 36.98 36.96 36.44 37.82 38.96 35.89 39.97 38.15 37.29 33.12 30.75 28.21 23.87 19.84 21.73 17.80 17.71 18.43 19.55 20.18 20.69
50.23 50.78 50.07 49.81 49.05 50.27 53.58 52.36 49.29 35.38 22.52 37.96 41.75 40.90 40.10 41.78 41.92 43.35 42.78 44.35 43.36 39.41 38.19 37.69 41.29 39.51 38.74 40.11 40.03 40.92 37.87 37.27 34.91 32.31 24.95 30.27 28.59 19.01 20.17 18.67 17.24 18.38 18.61 19.54 19.90
50.19 51.60 50.20 51.92 46.49 47.68 52.89 48.16 32.22 24.83 38.77 35.99 37.13 40.28 39.51 38.20 38.88 39.47 38.10 36.87 34.29 30.43 29.94 35.58 36.57 38.80 40.88 36.63 39.04 38.07 34.08 26.46 25.47 24.75 24.05 31.81 28.64 17.13 18.73 19.92 18.74 17.08 17.44 18.25 19.00
49.77 51.05 50.72 49.90 46.16 47.31 50.62 40.74 27.28 32.56 35.24 41.06 40.31 39.43 36.27 38.19 37.62 38.30 35.29 32.45 36.24 35.72 31.26 28.74 27.29 36.00 39.27 37.11 34.80 34.48 34.30 27.61 23.10 23.40 24.85 28.56 18.64 15.65 20.10 21.22 20.21 19.67 18.81 18.44 16.96
49.61 47.19 42.88 43.30 47.40 50.39 44.81 32.84 28.59 32.60 36.20 37.42 38.75 35.04 35.54 37.71 37.33 36.40 33.91 33.28 33.92 35.46 32.95 29.74 30.16 35.86 37.27 37.99 37.97 34.68 32.03 36.12 30.16 28.89 24.28 15.31 14.82 19.23 20.15 18.84 18.45 17.72 17.00 15.34 14.97
42.34 45.67 39.76 46.43 49.47 47.71 39.38 34.09 33.07 36.02 36.42 37.81 33.11 36.41 32.90 35.39 34.43 33.53 33.18 32.95 32.92 34.66 35.23 31.38 28.20 34.15 35.57 38.01 36.88 34.78 36.72 30.42 29.96 23.74 21.75 17.86 11.95 14.84 15.32 15.45 16.68 15.25 13.80 13.93 14.58
43.16 39.50 40.25 49.49 48.01 42.10 34.07 30.91 33.95 37.01 37.73 33.97 32.62 33.30 33.99 34.99 35.56 33.41 29.40 28.71 31.02 33.28 32.26 30.94 30.28 27.58 33.46 26.44 27.12 31.85 31.84 32.65 32.61 30.38 23.95 18.06 15.34 18.22 18.24 17.04 14.29 14.08 13.75 12.19 11.80
40.57 32.79 40.61 47.34 36.38 37.44 32.98 29.70 35.03 33.46 35.24 35.23 34.38 31.81 30.49 31.79 31.88 26.09 25.01 27.26 30.63 30.56 28.94 28.71 26.41 20.21 22.99 28.64 29.77 26.73 25.21 27.18 27.06 25.41 24.28 22.72 10.14 16.30 15.43 16.04 15.27 13.30 13.81 12.18 12.14
33.42 31.70 40.86 43.20 29.82 27.84 27.58 28.17 29.44 30.25 28.85 31.00 30.70 31.56 30.93 28.98 26.41 25.64 24.66 29.58 32.08 29.91 26.62 28.05 22.13 15.63 19.97 23.46 26.56 22.20 22.69 24.22 25.35 24.15 19.16 17.48 8.62 14.80 13.92 12.13 12.60 9.80 10.62 11.36 11.87
30.08 26.18 33.12 38.49 35.58 32.75 29.19 28.41 25.10 29.70 28.31 29.84 29.32 30.85 29.09 27.93 28.83 24.04 23.29 27.62 30.48 30.13 33.53 32.01 23.98 17.88 17.69 19.67 23.05 19.43 19.71 21.04 18.56 13.61 13.48 7.67 6.18 7.16 7.16 7.90 7.06 6.56 5.37 2.43 3.64
29.47 24.20 28.05 25.99 28.89 32.19 32.82 29.79 25.57 24.66 28.12 28.59 26.05 27.42 27.74 25.68 25.48 22.73 23.98 25.27 27.83 30.15 27.97 28.13 19.51 19.67 20.00 21.28 19.40 16.76 16.85 17.87 13.82 8.46 10.68 5.09 2.68 4.83 0.82 0.72 -1.68 -1.67 2.32 2.65 -0.53
26.21 25.51 26.99 25.66 27.46 25.96 28.54 25.82 25.89 23.84 24.12 24.31 24.02 26.23 26.21 22.42 24.59 21.99 23.29 23.03 23.25 25.61 23.73 25.36 17.99 20.35 15.81 19.89 18.03 11.21 12.64 15.54 14.40 10.57 7.25 6.11 3.00 4.06 0.15 -2.27 -0.23 -2.68 1.64 -0.40 -2.86
30.30 30.98 27.33 26.68 23.83 22.93 21.33 22.99 24.44 24.62 25.73 27.46 25.07 22.92 21.86 23.60 26.55 26.94 26.93 26.17 25.01 23.31 21.86 21.88 19.62 15.90 9.69 17.58 16.55 7.37 3.03 10.93 9.22 7.08 8.29 8.27 2.53 4.25 2.98 6.44 -0.76 -2.28 -1.48 -2.18 -3.76
MSLP
1013.74 1013.46 1013.22 1012.92 1012.72 1012.34 1012.19 1012.12 1012.22 1012.07 1011.95 1011.85 1012.23 1012.45 1012.56 1012.60 1012.82 1013.02 1012.37 1010.87 1010.85 1010.82 1011.02 1011.41 1012.17 1012.39 1012.31 1012.77 1012.48 1012.56 1013.41 1013.42 1012.95 1012.57 1013.21 1013.35 1013.74 1014.87 1017.02 1017.36 1018.31 1020.03 1021.61 1022.59 1021.15
1013.71 1013.36 1013.01 1012.67 1012.66 1012.37 1012.25 1011.93 1011.79 1011.87 1011.81 1011.89 1012.05 1012.26 1012.53 1012.78 1012.81 1012.22 1010.50 1010.32 1010.29 1010.44 1011.24 1011.20 1011.90 1012.24 1012.79 1012.70 1012.76 1012.95 1013.23 1012.82 1012.25 1012.40 1014.19 1015.07 1015.27 1016.58 1018.41 1019.58 1021.20 1022.07 1023.08 1023.12 1022.61
1013.64 1013.37 1013.06 1012.73 1012.61 1012.36 1012.17 1011.92 1011.76 1011.67 1011.76 1011.85 1011.88 1012.14 1012.43 1012.67 1012.56 1010.06 1008.82 1009.63 1010.06 1010.34 1010.86 1011.22 1011.38 1012.13 1012.77 1012.88 1012.84 1012.87 1012.91 1012.63 1012.82 1012.99 1013.46 1015.72 1017.20 1018.36 1019.57 1022.42 1024.61 1025.24 1025.69 1025.63 1025.25
1013.45 1013.14 1012.81 1012.57 1012.28 1012.09 1011.82 1011.72 1011.49 1011.55 1011.66 1011.88 1011.92 1012.14 1012.35 1012.85 1011.42 1008.70 1008.23 1009.17 1009.73 1010.25 1010.95 1011.27 1011.72 1012.23 1012.55 1012.89 1012.68 1012.87 1012.33 1012.98 1013.13 1013.44 1014.09 1016.41 1018.87 1021.39 1021.78 1025.30 1026.30 1026.77 1027.30 1027.16 1027.07
1013.46 1013.06 1012.70 1012.39 1012.20 1011.98 1011.80 1011.54 1011.39 1011.38 1011.59 1011.74 1011.89 1012.10 1012.47 1012.27 1010.28 1008.61 1008.38 1009.17 1009.84 1010.41 1010.91 1011.10 1011.73 1011.96 1012.21 1012.30 1012.52 1012.69 1012.48 1013.02 1013.96 1014.84 1016.23 1017.64 1020.13 1021.74 1024.64 1026.15 1026.99 1027.54 1027.79 1028.34 1028.65
1013.50 1013.11 1012.77 1012.42 1012.27 1012.02 1011.73 1011.51 1011.31 1011.24 1011.45 1011.67 1011.87 1012.04 1012.28 1011.10 1008.52 1008.49 1008.89 1009.43 1009.73 1010.39 1010.75 1011.12 1011.09 1011.12 1011.59 1011.76 1012.36 1012.03 1012.46 1013.36 1014.31 1015.71 1017.40 1018.54 1021.36 1022.26 1026.08 1026.75 1027.57 1028.23 1029.12 1029.65 1029.84
1013.49 1013.07 1012.79 1012.38 1012.22 1011.92 1011.61 1011.31 1011.11 1011.20 1011.49 1011.69 1011.85 1011.95 1011.55 1009.75 1008.51 1008.54 1008.91 1009.39 1009.66 1010.16 1010.61 1010.65 1010.61 1010.99 1011.18 1011.43 1011.33 1011.95 1012.77 1013.47 1014.82 1015.75 1018.26 1017.92 1022.33 1025.16 1026.53 1027.23 1028.51 1029.45 1030.20 1030.66 1031.07
1013.44 1013.04 1012.72 1012.42 1012.09 1011.88 1011.54 1011.06 1010.82 1011.13 1011.52 1011.65 1011.76 1011.95 1010.75 1008.71 1008.76 1008.70 1009.07 1009.56 1009.81 1010.11 1010.26 1010.35 1010.38 1010.84 1011.19 1011.36 1011.51 1012.20 1013.01 1013.89 1014.66 1015.85 1017.28 1018.58 1024.65 1026.45 1027.24 1027.85 1029.43 1030.39 1031.18 1031.65 1031.97
1013.37 1012.97 1012.65 1012.30 1012.04 1011.73 1011.39 1010.94 1010.91 1011.19 1011.50 1011.52 1011.87 1011.83 1010.05 1008.63 1008.72 1008.61 1008.87 1009.39 1009.88 1010.15 1010.14 1010.35 1010.56 1011.08 1011.40 1012.12 1012.59 1012.85 1013.66 1014.19 1014.96 1015.35 1017.48 1020.07 1025.21 1027.32 1028.02 1028.84 1030.39 1031.39 1032.08 1032.57 1032.82
1013.24 1012.88 1012.54 1012.16 1011.82 1011.56 1011.34 1011.07 1011.06 1011.38 1011.63 1011.79 1011.35 1011.78 1009.62 1008.63 1008.47 1008.64 1008.74 1009.35 1010.01 1010.38 1010.69 1010.91 1011.40 1011.71 1012.16 1012.86 1012.88 1013.10 1013.78 1014.33 1015.07 1017.08 1018.68 1021.97 1025.85 1027.92 1029.02 1029.93 1031.37 1032.18 1032.88 1033.29 1033.42
1013.07 1012.72 1012.36 1012.02 1011.72 1011.46 1011.25 1011.14 1011.61 1011.64 1010.95 1009.95 1009.59 1009.31 1008.44 1008.27 1008.25 1008.76 1008.95 1009.56 1010.24 1010.83 1011.39 1011.57 1012.10 1012.09 1012.12 1012.35 1012.31 1012.86 1013.65 1014.34 1015.59 1017.79 1020.11 1023.60 1026.36 1028.63 1030.03 1031.13 1032.26 1033.03 1033.62 1033.95 1034.06
1012.83 1012.43 1012.05 1011.78 1011.56 1011.34 1011.33 1010.58 1009.35 1009.40 1009.75 1009.16 1009.07 1008.63 1008.43 1008.21 1008.77 1008.96 1009.05 1009.90 1010.67 1011.26 1011.63 1012.17 1011.97 1011.96 1012.01 1012.09 1012.33 1012.52 1013.27 1014.37 1016.62 1018.64 1020.23 1024.71 1027.43 1029.48 1030.73 1032.05 1032.99 1033.72 1034.23 1034.63 1034.87
1012.47 1012.02 1011.69 1011.51 1011.30 1011.40 1010.87 1009.87 1008.93 1008.91 1009.11 1008.41 1008.31 1008.05 1008.16 1008.46 1008.62 1008.88 1009.27 1009.64 1010.41 1011.21 1011.47 1011.72 1011.17 1011.32 1011.72 1011.71 1011.97 1011.98 1012.96 1013.79 1015.42 1018.85 1021.57 1023.69 1027.90 1029.91 1031.66 1032.60 1033.53 1034.30 1034.84 1035.23 1035.51
1012.03 1011.62 1011.34 1011.22 1011.63 1010.67 1010.23 1009.09 1009.02 1009.22 1009.19 1008.34 1007.97 1007.27 1007.72 1008.19 1008.69 1008.67 1008.98 1009.50 1010.05 1010.67 1011.28 1011.40 1010.72 1010.74 1011.13 1011.27 1011.30 1011.45 1011.90 1012.96 1015.20 1016.90 1020.11 1021.73 1026.56 1029.67 1031.44 1033.03 1034.10 1034.94 1035.42 1035.89 1036.19
1011.50 1011.11 1011.00 1011.06 1010.84 1010.24 1009.42 1008.76 1008.90 1009.31 1009.03 1007.68 1007.44 1006.91 1007.35 1008.36 1008.57 1009.05 1009.04 1009.37 1009.76 1010.11 1010.85 1010.83 1010.61 1010.74 1010.87 1010.54 1010.82 1011.15 1011.20 1012.49 1014.28 1016.02 1018.06 1021.28 1024.37 1028.47 1031.02 1033.14 1034.63 1035.52 1036.09 1036.60 1036.95
1011.00 1010.58 1010.70 1010.87 1010.71 1009.77 1009.16 1009.09 1009.26 1009.85 1008.29 1007.48 1007.29 1007.23 1007.89 1008.42 1008.90 1009.25 1009.46 1009.54 1009.63 1010.16 1010.49 1010.86 1010.58 1010.54 1010.45 1010.58 1010.61 1011.07 1011.76 1012.61 1014.00 1015.88 1017.63 1019.46 1022.75 1028.35 1030.56 1032.31 1034.72 1035.91 1036.63 1037.15 1037.53
1010.69 1010.32 1010.48 1010.06 1009.94 1009.43 1009.36 1009.58 1010.06 1009.31 1007.25 1007.65 1007.50 1007.64 1008.13 1008.61 1009.19 1009.41 1009.76 1009.96 1010.12 1010.69 1011.02 1011.20 1011.16 1010.93 1010.70 1011.10 1011.20 1011.40 1012.29 1014.07 1015.27 1016.25 1017.16 1018.77 1022.84 1028.77 1031.19 1032.90 1034.56 1036.00 1037.01 1037.71 1038.13
1010.37 1010.19 1009.94 1009.71 1009.48 1009.57 1009.73 1010.18 1010.01 1008.45 1008.11 1007.36 1007.42 1008.08 1008.41 1008.80 1009.42 1009.80 1010.35 1010.68 1010.79 1010.87 1011.32 1011.71 1012.32 1011.63 1011.21 1011.36 1011.38 1011.82 1012.11 1013.15 1014.12 1015.59 1017.39 1019.71 1025.03 1029.64 1032.13 1033.80 1035.25 1036.40 1037.31 1038.11 1038.73
1010.06 1009.90 1009.88 1009.43 1009.48 1009.62 1010.02 1010.32 1010.03 1009.90 1009.55 1008.55 1008.20 1008.38 1008.57 1009.04 1009.49 1010.19 1010.90 1011.36 1011.54 1011.45 1011.62 1012.06 1012.51 1012.38 1012.15 1011.97 1011.96 1012.15 1012.32 1012.66 1013.66 1014.99 1017.96 1023.11 1028.12 1031.09 1032.80 1034.41 1035.77 1036.85 1037.86 1038.74 1039.35
1010.36 1009.93 1009.68 1009.38 1009.41 1009.79 1010.29 1009.98 1010.54 1010.71 1010.32 1009.66 1009.05 1008.46 1008.75 1009.20 1010.03 1010.76 1011.55 1012.49 1012.52 1012.37 1012.18 1012.44 1013.12 1013.27 1013.08 1012.89 1012.81 1012.66 1012.92 1013.45 1014.32 1016.03 1018.96 1023.38 1027.36 1029.91 1032.69 1034.62 1036.14 1037.43 1038.51 1039.38 1040.06
1010.38 1010.16 1009.63 1009.31 1009.56 1010.17 1010.63 1010.99 1011.02 1011.11 1010.92 1010.79 1010.42 1009.73 1009.53 1009.67 1010.34 1011.51 1012.66 1013.61 1013.60 1013.30 1013.12 1013.24 1013.45 1014.69 1014.33 1015.34 1015.08 1014.51 1014.35 1014.52 1015.11 1016.46 1018.83 1023.54 1027.91 1030.60 1032.51 1034.72 1036.54 1038.03 1039.17 1040.07 1040.85
1010.57 1010.62 1009.77 1009.57 1010.22 1010.64 1011.37 1011.80 1011.82 1011.84 1011.81 1011.47 1011.45 1011.20 1010.84 1010.87 1011.44 1012.81 1013.72 1014.42 1014.59 1014.44 1014.29 1014.43 1014.76 1016.29 1016.95 1017.16 1017.06 1017.11 1017.31 1017.23 1017.41 1018.67 1020.50 1023.69 1030.10 1032.82 1034.08 1035.89 1037.41 1038.94 1040.00 1040.90 1041.59
1011.50 1011.05 1010.04 1009.73 1010.59 1011.29 1012.03 1012.48 1012.71 1012.64 1012.65 1012.21 1012.43 1012.27 1012.02 1012.44 1013.19 1013.96 1014.98 1015.73 1015.28 1015.34 1015.38 1015.34 1016.12 1018.15 1018.80 1018.95 1018.78 1019.34 1020.00 1019.95 1020.12 1021.07 1023.33 1026.90 1032.20 1034.66 1036.19 1037.78 1039.15 1040.31 1041.15 1041.73 1042.46
1012.11 1012.19 1011.53 1010.75 1010.88 1011.20 1012.07 1012.61 1013.15 1013.33 1013.26 1013.01 1012.98 1013.14 1013.08 1013.70 1014.12 1015.04 1015.87 1016.34 1016.14 1016.16 1016.21 1016.23 1017.49 1018.28 1019.03 1019.43 1020.06 1021.60 1022.42 1022.67 1023.11 1025.06 1026.83 1029.98 1033.92 1036.62 1038.17 1039.61 1040.72 1041.61 1042.36 1042.76 1043.44
1012.87 1013.74 1013.29 1012.65 1012.18 1012.07 1011.88 1012.62 1013.31 1013.76 1013.76 1013.68 1013.69 1013.64 1014.01 1014.84 1015.28 1015.90 1016.47 1016.82 1016.90 1016.82 1016.97 1017.31 1018.95 1019.91 1020.86 1021.39 1022.23 1024.01 1025.02 1025.46 1026.56 1028.50 1030.23 1032.91 1035.34 1037.91 1039.79 1041.05 1041.93 1042.63 1043.49 1043.99 1044.40
1014.82 1014.95 1014.20 1013.69 1013.21 1012.84 1012.78 1013.05 1013.51 1014.40 1014.45 1014.22 1014.25 1014.28 1014.39 1015.18 1015.20 1015.84 1016.24 1016.93 1017.05 1017.54 1017.95 1018.43 1020.25 1021.00 1022.77 1023.54 1024.56 1026.62 1027.96 1028.78 1029.94 1031.66 1033.22 1035.18 1037.73 1039.47 1040.90 1041.82 1042.96 1043.64 1044.25 1044.75 1045.00
1015.91 1015.68 1015.42 1014.75 1014.12 1014.00 1014.01 1013.87 1014.16 1014.54 1014.92 1014.62 1014.85 1015.04 1015.57 1016.30 1015.90 1016.16 1016.79 1017.32 1017.82 1018.04 1018.60 1019.27 1020.64 1022.18 1024.50 1025.38 1026.70 1029.49 1031.45 1031.90 1033.06 1034.32 1035.46 1037.17 1038.71 1040.35 1041.96 1042.81 1043.62 1044.05 1044.81 1045.19 1045.26
Wind_Speed
14 12 12 12 11 10 9 9 10 9 7 6 7 6 6 4 1 2 7 10 8 12 9 7 3 6 2 3 2 3 3 2 5 6 5 8 19 18 13 19 26 12 18 14 18
14 13 12 12 12 12 11 9 9 9 8 6 7 6 5 5 3 9 9 14 10 16 6 11 7 5 1 3 1 4 4 3 3 6 10 16 12 8 10 16 15 15 21 23 25
15 14 13 12 12 11 11 11 8 7 7 5 5 6 5 4 3 9 17 19 16 14 5 5 8 6 4 3 3 4 5 2 4 10 14 12 26 6 9 16 15 13 16 20 22
16 16 15 14 13 13 11 11 9 7 7 6 5 7 7 2 5 2 3 21 15 10 4 8 4 8 5 6 6 3 5 1 2 5 6 7 10 23 19 13 15 17 16 19 21
16 16 16 15 15 13 12 11 10 6 8 7 8 9 5 3 8 3 9 17 9 8 8 6 6 7 5 8 4 5 3 7 17 22 20 26 22 20 20 17 17 20 22 20 19
16 16 15 15 15 14 12 11 10 6 7 8 9 8 1 4 4 8 9 9 8 8 7 6 8 9 4 5 8 8 6 8 16 15 8 21 9 8 13 15 20 21 19 18 19
17 16 15 15 15 14 14 11 9 6 8 10 11 6 4 9 2 8 10 7 7 8 6 6 2 6 5 3 6 5 5 2 17 10 12 18 17 14 14 18 19 19 17 18 19
17 16 15 15 15 14 14 14 2 7 8 10 9 3 7 3 2 8 6 5 9 6 4 5 5 3 3 4 3 6 5 5 6 14 7 10 9 12 13 18 16 17 15 16 18
17 16 15 14 14 13 13 8 5 7 9 9 5 2 7 1 4 7 6 7 6 3 2 4 4 3 4 3 4 0 5 5 5 7 9 7 13 11 13 17 15 13 12 12 13
18 17 15 14 13 12 13 3 8 8 6 5 7 2 5 5 5 5 4 8 5 5 4 4 3 3 3 4 8 7 3 4 7 5 15 21 17 13 14 17 13 11 11 11 13
18 17 15 13 11 11 6 5 5 1 6 9 8 5 5 2 5 5 5 7 5 4 5 3 4 9 10 8 6 3 4 7 6 15 15 19 17 13 13 13 12 10 10 11 13
19 17 15 12 10 8 2 3 3 3 4 17 9 6 3 4 5 4 8 7 7 6 5 3 7 8 9 7 8 6 1 6 15 13 18 16 15 11 10 11 11 10 10 11 11
19 17 14 10 7 3 4 6 4 8 2 2 8 5 5 4 6 10 11 4 6 6 7 8 6 14 8 7 7 5 8 7 12 13 15 19 8 9 9 13 13 12 11 12 12
19 15 11 6 0 3 4 6 8 3 2 5 6 5 5 5 2 6 6 5 5 12 7 5 6 9 5 6 6 4 7 7 17 6 6 12 5 5 11 11 10 10 10 10 11
18 12 7 9 4 3 2 2 5 2 1 6 5 1 8 6 7 2 2 1 7 6 8 8 7 7 5 6 7 7 1 8 12 6 6 8 6 5 12 8 9 8 10 10 11
16 8 5 3 2 5 5 5 4 3 8 5 5 6 7 4 2 4 4 1 2 3 3 3 1 3 5 3 5 6 5 7 5 4 2 8 9 8 7 11 10 10 10 10 10
15 6 5 2 2 4 2 3 4 4 2 6 6 7 7 6 5 5 7 5 6 6 4 2 2 1 2 5 5 4 7 3 1 1 6 7 8 5 9 11 14 12 10 9 8
15 6 6 3 1 2 2 2 3 4 2 1 6 12 6 8 2 6 7 5 1 2 5 7 3 6 3 3 7 6 7 7 8 6 5 6 5 6 11 13 14 12 11 10 9
15 1 2 2 1 2 2 3 3 1 4 4 7 9 4 3 6 5 7 5 2 3 6 6 3 1 4 2 3 5 8 4 3 2 4 6 5 5 12 13 12 11 11 9 8
1 1 1 2 2 3 1 6 4 2 4 3 2 7 5 10 5 5 8 3 3 2 2 2 5 1 0 3 2 2 2 3 1 4 5 2 6 6 15 14 12 10 9 8 8
1 2 3 2 3 3 3 2 4 2 3 5 5 3 2 6 8 5 2 3 5 2 2 1 4 2 3 6 1 2 2 0 2 3 4 5 3 4 13 14 13 10 9 7 7
2 2 3 1 3 1 2 2 3 2 3 2 4 3 3 4 3 4 4 3 5 3 3 1 5 4 1 0 3 3 2 2 4 4 1 3 3 4 12 12 12 10 9 7 6
2 1 4 0 2 1 3 3 3 2 1 2 1 3 4 4 4 3 4 3 6 4 3 0 2 4 1 1 2 5 3 2 2 3 2 5 4 5 10 11 9 8 5 4 5
2 3 4 3 1 3 4 3 3 1 1 2 3 2 2 4 6 5 3 3 4 3 6 1 4 3 7 3 4 5 5 3 4 4 2 2 10 5 5 8 4 3 2 3 4
4 1 4 2 3 5 4 5 4 2 0 1 2 1 5 4 3 3 3 3 4 3 4 4 5 4 7 9 10 7 7 7 5 0 4 6 7 9 6 6 4 2 1 4 2
3 3 5 1 4 2 4 3 5 3 1 3 3 4 5 3 4 8 7 4 3 2 2 2 6 4 6 7 8 8 9 11 9 5 8 6 3 3 2 3 3 2 2 2 2
4 4 1 4 4 1 2 1 4 8 5 2 10 8 13 6 12 14 13 12 7 4 3 3 6 3 2 7 6 4 3 3 5 5 2 4 5 6 3 4 2 2 3 4 3
Wind_Direction
347 351 349 348 343 341 331 309 293 276 269 235 213 218 237 233 164 213 226 223 187 186 127 136 178 248 170 226 260 58 71 208 246 157 109 4 88 60 59 72 58 60 61 41 36
347 348 348 345 341 342 333 322 297 277 265 251 205 207 211 228 246 248 230 231 219 170 171 154 176 190 174 215 282 104 117 243 286 98 99 60 76 68 75 46 46 40 29 30 35
345 344 343 344 341 339 336 328 306 273 254 255 188 184 189 161 269 243 214 217 172 162 173 175 155 151 180 146 214 190 178 217 16 109 113 101 58 26 107 50 45 52 35 29 35
343 341 342 343 341 340 338 329 316 266 238 225 188 187 171 150 183 272 243 183 165 165 176 179 162 154 165 193 219 175 251 88 349 35 84 74 86 65 64 89 73 60 53 42 36
340 340 340 341 338 336 332 328 312 267 220 208 191 177 125 214 254 195 134 161 144 151 193 184 163 163 180 189 180 212 274 116 95 77 85 87 78 96 80 79 69 58 48 43 38
339 340 339 338 334 331 329 320 304 263 209 197 191 154 347 235 253 147 141 146 159 156 195 199 184 188 196 192 164 215 215 125 114 103 87 99 88 75 92 86 67 58 53 47 43
336 339 338 335 333 330 326 316 293 230 193 188 186 169 238 241 44 125 141 171 158 175 165 211 187 155 195 242 198 161 168 145 124 127 130 111 41 86 97 82 73 64 57 52 46
334 335 334 335 332 330 324 316 234 174 174 181 179 188 248 244 309 131 159 161 159 203 224 135 108 129 163 308 57 108 87 146 157 148 177 69 112 94 89 84 72 67 60 54 49
333 331 330 332 328 329 320 333 120 138 164 166 124 210 259 307 177 181 150 148 147 172 125 121 85 149 67 90 55 132 186 181 113 156 108 102 125 110 91 84 78 72 63 57 49
332 331 326 327 325 323 317 282 127 135 166 190 267 208 255 212 170 162 131 128 120 112 64 80 80 115 83 121 191 183 190 185 158 75 82 97 110 99 86 84 80 73 67 57 48
331 328 321 318 318 315 337 127 129 159 228 192 189 232 114 112 81 141 149 132 98 84 146 205 122 195 198 194 211 79 205 186 119 129 82 107 105 94 91 85 79 69 64 57 53
328 323 316 310 307 300 295 240 159 152 245 231 255 256 144 145 106 206 128 142 140 181 143 96 225 210 199 209 220 243 275 102 75 97 91 112 95 91 88 88 88 82 67 61 52
326 318 308 300 293 279 246 240 56 6 189 219 196 186 174 148 166 197 151 174 146 182 181 162 224 195 198 219 199 206 153 183 143 95 76 119 96 114 109 104 89 76 73 64 54
325 312 296 272 332 207 223 256 279 329 48 207 190 224 143 165 151 188 172 163 182 195 165 201 246 166 176 214 164 219 169 143 151 124 177 223 157 162 139 102 85 76 68 62 54
325 309 276 214 324 225 313 342 180 64 242 154 159 176 147 156 131 162 104 261 186 182 134 229 181 175 178 197 154 217 104 159 167 159 126 188 87 130 141 126 110 90 77 67 59
330 308 221 218 219 255 312 339 74 102 243 158 139 172 137 145 103 120 146 206 172 169 85 165 272 140 184 74 155 158 87 40 77 131 238 181 158 183 193 154 125 101 83 73 64
339 331 181 234 239 316 332 82 99 176 158 165 172 158 165 145 126 160 163 175 163 123 189 102 182 152 110 83 10 112 101 56 7 277 221 200 158 67 96 108 119 111 96 79 68
334 319 226 261 300 342 117 91 217 199 55 178 137 143 176 135 138 167 141 185 148 147 136 152 225 171 187 176 179 188 159 159 191 192 201 25 135 138 117 108 106 100 94 81 65
321 222 215 245 239 107 136 201 228 338 313 354 110 166 146 126 139 148 174 158 122 172 173 162 192 354 52 16 100 209 207 191 108 257 102 112 86 127 135 125 117 108 94 78 65
325 226 313 194 127 85 107 188 138 347 331 333 227 192 165 154 137 176 173 353 122 65 329 182 115 312 102 1 27 155 185 149 25 198 210 141 170 143 169 151 129 115 103 89 72
63 63 271 148 75 65 210 61 100 70 17 20 354 331 94 173 164 188 125 13 13 43 1 35 104 249 87 18 349 357 187 27 150 180 194 154 163 320 170 147 133 121 107 102 85
360 42 287 137 86 107 115 31 328 78 340 58 356 4 34 4 69 83 126 36 345 358 165 20 100 96 97 248 38 68 93 22 151 210 24 111 158 50 96 115 118 112 106 107 93
22 208 312 252 139 133 142 92 73 56 8 94 186 322 52 51 109 86 95 10 10 52 140 243 77 99 44 329 15 66 5 341 110 63 205 139 180 147 109 94 98 106 91 95 103
41 38 333 30 293 142 155 168 130 22 59 43 144 33 52 70 22 123 113 39 19 51 23 102 74 137 175 121 114 105 37 4 94 102 177 142 148 173 126 119 93 81 95 117 109
35 274 184 330 337 305 143 134 138 171 128 250 149 205 143 138 92 115 98 102 30 13 24 78 97 86 64 71 78 71 53 26 81 73 121 161 145 176 168 160 183 197 165 128 125
51 29 350 306 311 349 23 173 148 146 307 223 178 59 79 107 226 173 138 157 181 90 95 37 124 109 58 80 91 79 28 81 71 86 79 104 91 178 212 90 92 164 142 168 264
342 332 84 320 355 57 259 332 154 136 7 122 130 98 79 77 78 81 80 71 74 109 119 98 130 107 119 125 117 38 325 38 99 52 109 167 182 155 118 129 202 249 256 204 255